{"data":{"norad_id":65601,"intl_designator":"2025-207K","name":"STARLINK-35234","alt_names":[],"object_type":"PAYLOAD","status":"ACTIVE","operator":null,"country":"US","launch_date":"2025-09-13","launch_site_code":"AFWTR","launch_vehicle":null,"mission":null,"orbit_class":"UNKNOWN","rcs_meters":null,"size_class":null,"mass_kg":null,"dimensions":null,"purposes":["comms"],"wikipedia_slug":null,"has_3d_model":false,"image_url":null,"decayed_at":null,"tle_current":{"epoch":"2026-09-20T22:00:03.000096Z","epoch_age_seconds":75872,"freshness":"FRESH","line1":"1 65601U 25207K   26263.91670139 -.00013802  00000+0 -42598-3 0  9995","line2":"2 65601  97.2851 326.4860 0001892  91.4003 309.1213 15.33442023  5795","mean_motion":15.33442023,"eccentricity":0.0001892,"inclination_deg":97.2851,"raan_deg":326.486,"arg_perigee_deg":91.4003,"mean_anomaly_deg":309.1213,"bstar":-0.00042598,"rev_number":579,"period_min":93.90638696485,"perigee_km":464.25720598512,"apogee_km":466.84685791481,"semimajor_km":6843.68903195,"source":"CELESTRAK","updated_at":"2026-09-21T09:00:35.654764Z"}}}